User: anonymous   Login
Location: Palomar Mountain Lodge
(33.3110°N, 116.8495°W)
Time: 22:48:55
(UTC-08:00)
Language:

Cosmos 1758 Rocket - Orbit

View from above orbital plane
View from above orbital plane
View from above satellite
View from above satellite

Ground track
Ground track

The orbit data is extracted from the following two-line orbital elements,

1 16792U 86046B   19051.91351270  .00000065  00000-0  49438-5 0  9997
2 16792  82.4855 344.8917 0025728  73.2662 350.7168 14.83203666765855
Epoch (UTC): 20 February 2019 21:55:27
Eccentricity: 0.0025728
inclination: 82.4855°
perigee height: 601 km
apogee height: 637 km
right ascension of ascending node: 344.8917°
argument of perigee: 73.2662°
revolutions per day: 14.83203666
mean anomaly at epoch: 350.7168°
orbit number at epoch: 76585

The dashed part of the orbit path shows where the satellite is in the earth's shadow,  

DLR